{"data":{"norad_id":59464,"intl_designator":"2024-068K","name":"STARLINK-31597","alt_names":[],"object_type":"PAYLOAD","status":"ACTIVE","operator":null,"country":"US","launch_date":"2024-04-10","launch_site_code":"AFETR","launch_vehicle":null,"mission":null,"orbit_class":"UNKNOWN","rcs_meters":null,"size_class":null,"mass_kg":null,"dimensions":null,"purposes":["comms"],"wikipedia_slug":null,"has_3d_model":false,"image_url":null,"decayed_at":null,"tle_current":{"epoch":"2026-05-25T04:47:41.966592Z","epoch_age_seconds":57694,"freshness":"FRESH","line1":"1 59464U 24068K   26145.19979128 -.00000304  00000+0 -15390-5 0  9993","line2":"2 59464  43.0027 322.4556 0000960 278.6178  81.4565 15.27576777120171","mean_motion":15.27576777,"eccentricity":9.6e-5,"inclination_deg":43.0027,"raan_deg":322.4556,"arg_perigee_deg":278.6178,"mean_anomaly_deg":81.4565,"bstar":-1.539e-6,"rev_number":12017,"period_min":94.266947604952,"perigee_km":482.40007208639,"apogee_km":483.71742166979,"semimajor_km":6861.1957468781,"source":"CELESTRAK","updated_at":"2026-05-25T13:38:18.949603Z"}}}